{"data":{"norad_id":65285,"epoch":"2026-09-20T09:56:53.682144Z","epoch_age_seconds":124857,"freshness":"FRESH","line1":"1 65285U 25184N   26263.41451021  .00012354  00000+0  38429-3 0  9996","line2":"2 65285  97.2855 311.4163 0000814  75.3842 284.7491 15.33451797 60719","mean_motion":15.33451797,"eccentricity":8.14e-5,"inclination_deg":97.2855,"raan_deg":311.4163,"arg_perigee_deg":75.3842,"mean_anomaly_deg":284.7491,"bstar":0.00038429,"rev_number":6071,"period_min":93.905788419119,"perigee_km":464.96587754288,"apogee_km":466.08002538298,"semimajor_km":6843.6599514629,"source":"CELESTRAK","updated_at":"2026-09-21T09:00:35.566098Z"}}